Miscellaneous Local Product
Issued by NWS Hastings, NE

Home | Current Version | Previous Version | Text Only | Print | Product List | Glossary Off
Versions: 1 2 3 4 5 6 7 8 9 10 11 12 13 14 15 16 17 18 19 20 21 22 23 24 25 26 27 28 29 30 31 32 33 34 35 36 37 38 39 40 41 42 43 44 45 46 47 48 49 50

000
AXUS43 KGID 252302
MISGRI

GID CWA HOURLY WEATHER ROUNDUP
NATIONAL WEATHER SERVICE HASTINGS NE
600 PM CDT FRI JUL 25 2014

NOTE: "FAIR" INDICATES FEW OR NO CLOUDS BELOW 12,000 FEET WITH NO
SIGNIFICANT WEATHER AND/OR OBSTRUCTIONS TO VISIBILITY.

...SOUTH CENTRAL NEBRASKA...

CITY           SKY/WX    TMP DP  RH WIND       PRES   REMARKS
GRAND ISLAND   MOSUNNY   92  73  53 NE6       29.80S HX 100
HASTINGS       MOSUNNY   92  65  40 N8        29.81S HX  94
KEARNEY        SUNNY     91  68  46 NW9       29.84S HX  95
ORD            MOSUNNY   90  69  50 N6        29.81S HX  94
YORK           MOSUNNY   91  73  55 N5        29.78S HX 100
AURORA         MOSUNNY   92  71  49 CALM      29.79S HX  98
LEXINGTON      MOSUNNY   92  69  47 CALM      29.85S HX  96
HOLDREGE       MOSUNNY   91  69  48 N7        29.83F HX  95
HEBRON         MOSUNNY   94  69  43 N8        29.76S HX 100

...NEBRASKA PANHANDLE...

CITY           SKY/WX    TMP DP  RH WIND       PRES   REMARKS
CHADRON        MOSUNNY   90  49  24 SE9       29.86F
ALLIANCE       PTSUNNY   88  50  27 S9        29.93F
SCOTTSBLUFF    MOSUNNY   88  55  32 E13       29.92F
SIDNEY         MOSUNNY   91  50  24 SE7       29.99R

...WESTERN AND NORTH CENTRAL NEBRASKA...

CITY           SKY/WX    TMP DP  RH WIND       PRES   REMARKS
VALENTINE      SUNNY     91  57  31 VRB3      29.85F
AINSWORTH      SUNNY     87  64  45 E3        29.85S
ONEILL         SUNNY     92  60  34 N5        29.81S HX  91
BROKEN BOW     MOSUNNY   91  69  48 NE6       29.85S HX  96
IMPERIAL       SUNNY     93  60  33 NE8       29.90F HX  93
NORTH PLATTE   MOSUNNY   93  62  35 E5        29.86F HX  93
MCCOOK         SUNNY     95  64  35 E12       29.85F HX  97

...EASTERN NEBRASKA...

CITY           SKY/WX    TMP DP  RH WIND       PRES   REMARKS
NORFOLK        MOSUNNY   90  71  53 N7        29.77R HX  96
SO SIOUX CITY  PTSUNNY   89  72  56 NE6       29.75F HX  96
COLUMBUS       SUNNY     91  73  55 CALM      29.77S HX 100
ALBION         MOSUNNY   87  71  59 CALM      29.80R HX  92
OMAHA EPPLEY   PTSUNNY   92  76  59 E5        29.72F HX 104
OFFUTT AFB     PTSUNNY   94  76  55 VRB2      29.72S HX 106
MILLARD        PTSUNNY   94  75  53 CALM      29.72S HX 105
LINCOLN        SUNNY     97  69  40 W8        29.75S HX 103
NEBRASKA CITY  MOSUNNY   96  69  41 W6        29.73S HX 101
BEATRICE       SUNNY     95  76  53 NW8       29.74S HX 109
FALLS CITY     SUNNY    101  69  35 SW14      29.71R HX 107

...NORTHERN KANSAS...

CITY           SKY/WX    TMP DP  RH WIND       PRES   REMARKS
GOODLAND       SUNNY     95  59  30 NE12      29.93F HX  94
HILL CITY      MOSUNNY  100  65  31 N13       29.80F HX 103
NORTON         CLEAR     95  61  31 N9        29.83S HX  95
PHILLIPSBURG   SUNNY     99  63  30 N12       29.79S HX 100
SMITH CENTER   SUNNY     99  66  34 N10       29.77F HX 102
HAYS           MOSUNNY   99  63  30 N9        29.78F HX 100
RUSSELL        SUNNY    101  60  25 S5        29.74F HX 101
CONCORDIA      MOSUNNY  101  64  29 VRB7      29.74S HX 104
SALINA         MOSUNNY  106  65  26 S23G29    29.73F HX 110
TOPEKA         MOSUNNY   99  69  37 S14G23    29.76S HX 105



USA.gov is the U.S. government's official web portal to all federal, state and local government web resources and services.